W4EDP Weather Reports


time (UTC)temp
C
wind
direction
speed
KPH
gust
KPH
rain 1hr
cm
rain 24hr
cm
rain mn
cm
humidity
%
barometer
mb
20260506072628 18 0 3.2 14.5 0.00 0.00 0.00 74 1008.6
20260506071602 18 0 3.2 41.8 0.00 0.00 0.00 74 1008.6
20260506070542 18 0 6.4 41.8 0.00 0.00 0.00 73 1008.8
20260506061531 18 0 6.4 27.4 0.00 0.00 0.00 71 1009.6
20260506060544 19 0 8.0 32.2 0.00 0.00 0.00 71 1009.6
20260506051346 18 0 3.2 14.5 0.00 0.00 0.00 67 1009.8
20260506050342 18 0 1.6 14.5 0.00 0.00 0.00 67 1009.8
20260506044333 18 0 1.6 12.9 0.00 0.00 0.00 65 1010.2
20260506043357 18 0 3.2 12.9 0.00 0.00 0.00 65 1010.2
20260506042345 18 0 3.2 12.9 0.00 0.00 0.00 64 1010.1
20260506041332 18 0 3.2 27.4 0.00 0.00 0.00 64 1010.1
20260506040332 18 0 1.6 27.4 0.00 0.00 0.00 63 1010.1
20260506034218 18 0 1.6 12.9 0.00 0.00 0.00 62 1010.3
20260506033202 18 0 3.2 24.1 0.00 0.00 0.00 61 1010.3
20260506032209 18 0 3.2 24.1 0.00 0.00 0.00 61 1010.3
20260506031135 18 0 3.2 14.5 0.00 0.00 0.00 61 1010.1
20260506030126 18 0 3.2 14.5 0.00 0.00 0.00 61 1010.1
20260506024048 19 0 6.4 27.4 0.00 0.00 0.00 59 1010.7
20260506023019 19 0 6.4 27.4 0.00 0.00 0.00 59 1010.7
20260506022020 19 0 6.4 14.5 0.00 0.00 0.00 59 1010.2
20260506021045 19 0 3.2 24.1 0.00 0.00 0.00 59 1010.0
20260506020030 19 0 3.2 29.0 0.00 0.00 0.00 59 1010.0
20260506015007 19 0 3.2 32.2 0.00 0.00 0.00 59 1009.8
20260506013955 19 0 6.4 32.2 0.00 0.00 0.00 59 1009.7
20260506012958 19 0 6.4 38.6 0.00 0.00 0.00 59 1009.7
20260506011945 19 0 6.4 38.6 0.00 0.00 0.00 59 1009.7
20260506011007 19 0 6.4 27.4 0.00 0.00 0.00 59 1009.7
20260506004922 19 0 3.2 14.5 0.00 0.00 0.00 58 1009.7
20260506003920 19 0 3.2 27.4 0.00 0.00 0.00 57 1009.7
20260506002905 19 0 6.4 27.4 0.00 0.00 0.00 56 1009.7
20260506001924 19 0 3.2 14.5 0.00 0.00 0.00 55 1009.7
20260506000912 19 0 3.2 14.5 0.00 0.00 0.00 55 1010.0
20260505235857 19 0 3.2 14.5 0.00 0.00 0.00 54 1010.0
20260505234844 19 0 3.2 12.9 0.00 0.00 0.00 54 1010.0
20260505233844 19 0 3.2 12.9 0.00 0.00 0.00 53 1009.9
20260505232836 19 0 1.6 12.9 0.00 0.00 0.00 54 1010.2
20260505231820 19 0 1.6 14.5 0.00 0.00 0.00 52 1010.2
20260505230843 20 0 1.6 12.9 0.00 0.00 0.00 51 1010.0
20260505225853 19 0 3.2 12.9 0.00 0.00 0.00 52 1009.9
20260505224837 19 0 1.6 12.9 0.00 0.00 0.00 50 1009.9
20260505223814 20 0 3.2 12.9 0.00 0.00 0.00 52 1010.2
20260505222837 19 0 3.2 12.9 0.00 0.00 0.00 51 1009.9
20260505220759 18 0 1.6 9.7 0.00 0.00 0.00 58 1010.1
20260505215726 18 0 1.6 6.4 0.00 0.00 0.00 59 1009.6
20260505214723 17 0 3.2 9.7 0.00 0.00 0.00 65 1009.6
20260505213734 17 0 6.4 20.9 0.00 0.00 0.00 60 1009.6
20260505212746 18 188 3.2 20.9 0.00 0.00 0.00 57 1010.6
20260505211804 19 200 1.6 4.8 0.00 0.00 0.00 55 1010.6
20260505204519 21 213 3.2 14.5 0.00 0.00 0.00 51 1010.6
20260505202413 21 178 1.6 14.5 0.00 0.00 0.00 49 1010.9
20260505201427 21 227 3.2 14.5 0.00 0.00 0.00 50 1010.9
20260505200401 22 145 3.2 14.5 0.00 0.00 0.00 47 1011.2
20260505195355 22 198 3.2 35.4 0.00 0.00 0.00 45 1011.2
20260505194330 22 101 6.4 35.4 0.00 0.00 0.00 46 1011.3
20260505193256 22 218 3.2 32.2 0.00 0.00 0.00 43 1011.3
20260505192249 22 123 6.4 32.2 0.00 0.00 0.00 41 1011.7
20260505191237 23 207 6.4 27.4 0.00 0.00 0.00 42 1011.3
20260505190243 22 159 3.2 27.4 0.00 0.00 0.00 45 1011.3
20260505185231 22 125 6.4 17.7 0.00 0.00 0.00 42 1011.5
20260505184252 22 304 6.4 29.0 0.00 0.00 0.00 44 1011.8
20260505183302 22 145 6.4 29.0 0.00 0.00 0.00 43 1011.8
20260505182236 22 259 6.4 24.1 0.00 0.00 0.00 44 1011.8
20260505181234 22 168 3.2 14.5 0.00 0.00 0.00 45 1012.2
20260505180221 22 146 6.4 24.1 0.00 0.00 0.00 46 1012.2
20260505175220 21 134 6.4 24.1 0.00 0.00 0.00 48 1011.9
20260505173115 21 85 3.2 14.5 0.00 0.00 0.00 49 1012.2
20260505172130 21 167 1.6 17.7 0.00 0.00 0.00 49 1012.4
20260505171056 21 241 1.6 17.7 0.00 0.00 0.00 52 1012.9
20260505170031 21 136 6.4 14.5 0.00 0.00 0.00 48 1012.9
20260505163914 21 200 3.2 29.0 0.00 0.00 0.00 50 1013.0
20260505162917 20 286 6.4 29.0 0.00 0.00 0.00 53 1013.0
20260505161927 20 286 3.2 14.5 0.00 0.00 0.00 57 1013.0
20260505160920 20 344 3.2 35.4 0.00 0.00 0.00 53 1013.0
20260505152900 18 254 3.2 14.5 0.00 0.00 0.00 63 1013.1
20260505151842 18 211 1.6 12.9 0.00 0.00 0.00 64 1013.1
20260505150812 17 292 3.2 24.1 0.00 0.00 0.00 65 1013.1
20260505124618 15 0 3.2 17.7 0.00 0.00 0.00 66 1012.6
20260505123612 15 0 3.2 14.5 0.00 0.00 0.00 66 1012.3
20260505122612 15 0 1.6 14.5 0.00 0.00 0.00 67 1012.2
20260505121609 14 0 3.2 24.1 0.00 0.00 0.00 67 1012.2
20260505120548 14 0 3.2 24.1 0.00 0.00 0.00 66 1012.1
20260505115544 14 0 3.2 12.9 0.00 0.00 0.00 64 1012.1
20260505114550 14 0 3.2 12.9 0.00 0.00 0.00 65 1012.1
20260505112418 15 0 3.2 14.5 0.00 0.00 0.00 62 1011.6
20260505111403 15 0 6.4 14.5 0.00 0.00 0.00 61 1011.5
20260505110342 15 0 3.2 17.7 0.00 0.00 0.00 61 1011.5
20260505101130 16 0 6.4 35.4 0.00 0.00 0.00 55 1011.1
20260505100104 16 0 6.4 35.4 0.00 0.00 0.00 54 1011.1
20260505093918 16 0 6.4 17.7 0.00 0.00 0.00 53 1011.2
20260505092919 16 0 3.2 12.9 0.00 0.00 0.00 53 1011.2
20260505091903 16 0 6.4 17.7 0.00 0.00 0.00 53 1011.3
20260505085747 16 0 3.2 17.7 0.00 0.00 0.00 54 1011.3
20260505084746 16 0 3.2 12.9 0.00 0.00 0.00 54 1011.3
20260505083751 16 0 3.2 14.5 0.00 0.00 0.00 55 1011.4
20260505082717 16 0 3.2 14.5 0.00 0.00 0.00 54 1011.6
20260505081712 16 0 3.2 27.4 0.00 0.00 0.00 54 1011.6